Grizzly Air Cargo 5135


PABR
Wiley Post-Will Rogers Memorial Airport
Barrow, Alaska, US
PASC
Deadhorse Airport
Deadhorse, Alaska, US

Activity Log

Date Flight Route Aircraft Duration
12/21/2019 GRZ5135 BRW J507 SCC B722 0h 47m
10/08/2019 GRZ535 BRW J507 SCC B722 0h 38m
09/20/2019 GRZ535 BRW J507 SCC B722 0h 38m
08/05/2019 GRZ535 BRW J507 SCC B722 0h 28m
06/27/2019 GRZ535 BRW J507 SCC B722 0h 53m
06/24/2019 GRZ535 BRW J507 SCC B722 0h 42m
04/15/2019 GRZ535 BRW J507 SCC B722 0h 38m
03/21/2019 GRZ535 BRW J507 SCC B722 0h 38m

Route Details

Aircraft Information
Primary: Boeing 727-200F
Backup: Boeing 737-800BCF
Route Data
Distance: 208nm
Sched. Duration: 1h 00m
Avg. Duration: 0h 40m (-60m)
Times Flown: 8
Recm'd Route: BRW J507 SCC
Planned Altitude: 27,000ft
Origin Wx: PABR 222107Z 27010KT 1SM BR OVC002 01/00 A3040 RMK AO2 T00110000 RVRNO
Dest. Wx: PASC 222117Z 26020KT 1 1/2SM R06/6000VP6000FT -SN BR BKN010 BKN014 OVC023 01/M01 A3045 RMK AO2 PK WND 26026/2114 P0000 T00061011
Notes:

Financial History
Total Freight: 296,216lbs
Average Load: 37,027lbs/flt
Fuel Used: 54,354lbs
Avg. Fuel Used: 6,794lbs/flt
Fuel Expense: $47,832
Avg. Fuel Expense: $5,979
Avg. Fuel Cost: $0.88/lbs
Total Gross Income: $820,575
Pilot Pay: $1,672
Total Expenses: $89,038
Total Revenue: $682,532
Average Revenue: $102,571.81